STARLINK-3976 (52673 NORAD) Tracking and Keplerian Element Data

This shows tracking and keplerian element data for the satellite.

Feedback or suggestion? Click here.




ElementValue
Catalog52673
NameSTARLINK-3976
Epoch Orbit130
Epoch Day192.91667824
Epoch Year2022
RAAN35.4186
Inclination53.2176
Eccentricity0.0001717
Argument of Perigee49.5311
Mean Anonmoly152.5935
Mean Motion15.21432298
Decay Rate-0.00722388
L11 52673U 22053T 22192.91667824 -.00722388 00000+0 -34073-1 0 9993
L22 52673 53.2176 35.4186 0001717 49.5311 152.5935 15.21432298 1306

Live tracking and technical data element details for STARLINK-3976 (NORAD 52673). STARLINK-3976 can be tracked NOW for your location showing map with azimuth and elevation plus other details from your city location.

Track the satellite on the map from your city or location and see movement details for azimuth, elevation, latitude, longitude, range, height, and movement on the map or in text.







IsCatalogInMostPopularTable: catalog: 52673, numindb: 6
Update: records affected: 1



GetName: 52673 STARLINK-3976

Hit Count: updated at: Sat, 13 Aug 2022 23:54:22 GMT